Regional Weather Roundup
Issued by NWS Goodland, KS

Home | Current Version | Previous Version | Graphics & Text | Print | Product List | Glossary On
Versions: 1 2 3 4 5 6 7 8 9 10 11 12 13 14 15 16 17 18 19 20 21 22 23 24 25 26 27 28 29 30 31 32 33 34 35 36 37 38 39 40 41 42 43 44 45 46 47 48 49 50
000
ASUS43 KGLD 231859
RWRGLD

GOODLAND FORECAST AREA HOURLY WEATHER ROUNDUP
NATIONAL WEATHER SERVICE GOODLAND KS
100 PM MDT TUE AUG 23 2016

...OFFICIAL OBSERVATIONS...

CITY           SKY/WX    TMP DP  RH WIND       PRES   REMARKS
GOODLAND KS    SUNNY     91  49  23 N12       29.91S
HILL CITY KS   SUNNY     91  61  36 SW14G23   29.83S
IMPERIAL NEB   SUNNY     91  39  16 NW17G23   29.88S
MCCOOK NEB     SUNNY     85  65  51 VRB3      29.83F
AKRON CO       SUNNY     89  28  11 N17G26    30.01S
BURLINGTON CO  SUNNY     92  32  12 N16       29.96S
LIMON CO       SUNNY     87  30  13 N14G25    30.07S
$$

...UNOFFICIAL OBSERVATIONS...

CITY           SKY/WX    TMP DP  RH WIND       PRES   REMARKS
COLBY KS       SUNNY     90  63  40 W7        29.88S
LENORA KS        N/A     89  32  13 MISG        N/A
NORTON KS      SUNNY     93  48  21 SW14G21   29.81F
SHARON SPRINGS   N/A     91  53  27 CALM        N/A
TRENTON NEB      N/A     90  32  12 MISG        N/A
KIT CARSON CO    N/A     90  34  14 MISG        N/A
YUMA CO          N/A     89  38  17 N12         N/A
$$




USA.gov is the U.S. government's official web portal to all federal, state and local government web resources and services.